Killeen, TX

10:45 AM CST on February 13, 2016 (GMT -0600)
Hood Army Air Field

Weather History for KHLR - January, 2015

Change the Weather History Date:

Saturday, January 3, 2015

  Actual Average (WUND) Record (WUND)
Temperature  
Mean Temperature 48 °F -  
Max Temperature 59 °F - - (-1)
Min Temperature 37 °F - - (-1)
Degree Days  
Heating Degree Days 17    
Moisture  
Dew Point 37 °F    
Average Humidity 89    
Maximum Humidity 100    
Minimum Humidity 42    
Precipitation  
Precipitation 0.28 in - - ()
Sea Level Pressure  
Sea Level Pressure 29.95 in    
Wind  
Wind Speed 7 mph (WNW)    
Max Wind Speed 15 mph    
Max Gust Speed 21 mph    
Visibility 6 miles    
Events Rain , Thunderstorm    
Averages and records for this station are not official NWS values.
T = Trace of Precipitation, MM = Missing Value Source: NWS Daily Summary

Daily Weather History Graph

Daily Weather History Graph

Search for Another Location

Airport or City:

Trip Planner

Search our weather history database for the weather conditions in past years. The results will help you decide how hot, cold, wet, or windy it might be!

Date:

Astronomy

Jan. 03, 2015 Rise Set
Actual Time 7:29 AM CST 5:41 PM CST
Civil Twilight 7:03 AM CST 6:07 PM CST
Nautical Twilight 6:33 AM CST 6:37 PM CST
Astronomical Twilight 6:03 AM CST 7:07 PM CST
Moon 4:46 PM CST (1/3) 5:57 AM CST (1/3)
Length of Visible Light 11h 04m
Length of Day
10h 11m
Waxing Gibbous, 98% of the Moon is Illuminated
Jan 3
Waxing Gibbous
Jan 4
Full
Jan 13
Last Quarter
Jan 20
New
Jan 26
First Quarter

Hourly Weather History & Observations

Time (CST) Temp. Windchill Dew Point Humidity Pressure Visibility Wind Dir Wind Speed Gust Speed Precip Events Conditions
12:04 AM 37.4 °F 31.4 °F 37.4 °F 100% 29.95 in 0.8 mi NW 8.1 mph - N/A Rain , Thunderstorm Thunderstorms and Rain
12:09 AM 37.4 °F 31.4 °F 37.4 °F 100% 29.96 in 0.8 mi NW 8.1 mph - N/A Rain , Thunderstorm Thunderstorms and Rain
12:10 AM 37.4 °F 30.8 °F 37.4 °F 100% 29.96 in 0.8 mi NW 9.2 mph - N/A Rain , Thunderstorm Rain
12:50 AM 37.4 °F 32.8 °F 37.4 °F 100% 29.94 in 0.8 mi NW 5.8 mph - N/A Rain , Thunderstorm Rain
12:58 AM 37.0 °F 29.8 °F 36.9 °F 99% 29.91 in 0.8 mi NNW 10.4 mph - 0.18 in Rain , Thunderstorm Rain
1:07 AM 37.4 °F - 37.4 °F 100% 29.96 in 0.8 mi Variable 1.2 mph - N/A Rain Light Rain
1:10 AM 37.4 °F - 37.4 °F 100% 29.95 in 0.8 mi Variable 2.3 mph - N/A   Overcast
1:14 AM 37.4 °F 33.8 °F 37.4 °F 100% 29.94 in 1.0 mi NW 4.6 mph - N/A Rain Rain
1:19 AM 37.4 °F 32.8 °F 37.4 °F 100% 29.94 in 1.2 mi NW 5.8 mph - N/A Rain , Thunderstorm Light Rain
1:24 AM 37.4 °F 32.8 °F 37.4 °F 100% 29.93 in 1.8 mi NNW 5.8 mph - N/A Thunderstorm Overcast
1:34 AM 37.4 °F - 37.4 °F 100% 29.93 in 1.8 mi Variable 2.3 mph - N/A   Overcast
1:44 AM 37.4 °F - 37.4 °F 100% 29.93 in 1.8 mi Variable 1.2 mph - N/A Rain , Thunderstorm Light Rain
1:49 AM 37.4 °F - 37.4 °F 100% 29.94 in 2.0 mi SW 2.3 mph - N/A Rain , Thunderstorm Light Rain
1:54 AM 37.4 °F - 37.4 °F 100% 29.94 in 2.0 mi Variable 1.2 mph - N/A Rain Light Rain
1:58 AM 37.2 °F 32.6 °F 37.0 °F 99% 29.91 in 2.0 mi NE 5.8 mph - 0.07 in Rain Light Rain
2:03 AM 37.4 °F 31.4 °F 37.4 °F 100% 29.88 in 1.8 mi NNE 8.1 mph - N/A Rain Rain
2:13 AM 37.4 °F 32.8 °F 37.4 °F 100% 29.87 in 1.0 mi North 5.8 mph - N/A Rain Light Rain
2:14 AM 37.4 °F 34.9 °F 37.4 °F 100% 29.88 in 1.0 mi NNE 3.5 mph - N/A   Mostly Cloudy
2:24 AM 37.4 °F 34.9 °F 37.4 °F 100% 29.87 in 1.2 mi East 3.5 mph - N/A   Mostly Cloudy
2:29 AM 37.4 °F - 37.4 °F 100% 29.88 in 2.0 mi Variable 2.3 mph - N/A   Mostly Cloudy
2:34 AM 37.4 °F 34.9 °F 37.4 °F 100% 29.88 in 6.0 mi NNW 3.5 mph - N/A   Mostly Cloudy
2:58 AM 37.2 °F - 36.9 °F 99% 29.92 in 9.0 mi SW 2.3 mph - 0.03 in   Overcast
3:18 AM 37.4 °F 31.4 °F 37.4 °F 100% 29.94 in 10.0 mi West 8.1 mph - N/A   Overcast
3:58 AM 37.2 °F 30.6 °F 36.9 °F 99% 29.94 in 10.0 mi WNW 9.2 mph - N/A   Overcast
4:03 AM 37.4 °F 30.8 °F 37.4 °F 100% 29.92 in 10.0 mi WNW 9.2 mph - N/A   Overcast
4:19 AM 37.4 °F 31.4 °F 37.4 °F 100% 29.93 in 9.0 mi West 8.1 mph - N/A   Overcast
4:58 AM 37.9 °F 31.5 °F 37.2 °F 97% 29.96 in 10.0 mi West 9.2 mph - N/A   Overcast
5:03 AM 37.4 °F 30.3 °F 37.4 °F 100% 29.94 in 10.0 mi WNW 10.4 mph - N/A   Overcast
5:33 AM 37.4 °F 32.1 °F 37.4 °F 100% 29.94 in 10.0 mi NNW 6.9 mph - N/A   Overcast
5:58 AM 37.8 °F 31.8 °F 37.0 °F 97% 29.96 in 10.0 mi WNW 8.1 mph - N/A   Overcast
6:05 AM 37.4 °F 29.8 °F 37.4 °F 100% 29.94 in 10.0 mi WNW 11.5 mph - N/A   Overcast
6:20 AM 37.4 °F 29.8 °F 37.4 °F 100% 29.94 in 8.0 mi West 11.5 mph - N/A   Overcast
6:35 AM 37.4 °F 29.3 °F 37.4 °F 100% 29.94 in 10.0 mi WNW 12.7 mph - N/A   Overcast
6:58 AM 37.2 °F 31.2 °F 36.5 °F 97% 29.96 in 10.0 mi WNW 8.1 mph - N/A   Overcast
7:03 AM 37.4 °F 30.8 °F 35.6 °F 93% 29.95 in 10.0 mi WNW 9.2 mph - N/A   Overcast
7:58 AM 37.9 °F 32.1 °F 36.9 °F 96% 29.99 in 10.0 mi West 8.1 mph - N/A   Overcast
8:58 AM 38.8 °F 31.6 °F 37.6 °F 95% 30.00 in 10.0 mi West 11.5 mph - N/A   Overcast
9:58 AM 40.3 °F 33.9 °F 37.9 °F 91% 30.03 in 10.0 mi West 10.4 mph - N/A   Overcast
10:58 AM 41.0 °F 33.9 °F 39.2 °F 93% 30.04 in 9.0 mi West 12.7 mph - N/A   Overcast
11:48 AM 44.6 °F 40.2 °F 39.2 °F 81% 30.00 in 10.0 mi West 8.1 mph - N/A   Scattered Clouds
11:58 AM 45.9 °F 40.8 °F 40.1 °F 80% 30.00 in 10.0 mi WNW 10.4 mph - N/A   Partly Cloudy
12:58 PM 50.2 °F - 39.6 °F 67% 29.95 in 10.0 mi West 6.9 mph - N/A   Clear
1:58 PM 55.6 °F - 37.0 °F 50% 29.90 in 10.0 mi West 9.2 mph - N/A   Clear
2:58 PM 58.3 °F - 35.2 °F 42% 29.89 in 10.0 mi West 15.0 mph 20.7 mph N/A   Clear
3:58 PM 59.2 °F - 37.0 °F 44% 29.90 in 10.0 mi SW 10.4 mph - N/A   Clear
4:58 PM 58.8 °F - 37.9 °F 46% 29.92 in 10.0 mi WSW 8.1 mph - N/A   Clear
5:58 PM 55.4 °F - 38.8 °F 54% 29.96 in 10.0 mi West 3.5 mph - N/A   Clear
6:58 PM 51.3 °F - 37.0 °F 58% 29.99 in 10.0 mi West 5.8 mph - N/A   Clear
7:58 PM 47.8 °F - 36.1 °F 64% 30.01 in 10.0 mi West 4.6 mph - N/A   Clear
8:58 PM 44.1 °F - 37.6 °F 78% 30.05 in 9.0 mi West 2.3 mph - N/A   Clear
9:58 PM 45.0 °F - 34.3 °F 66% 30.07 in 9.0 mi West 2.3 mph - N/A   Clear
10:58 PM 43.3 °F 41.7 °F 32.9 °F 67% 30.09 in 10.0 mi NW 3.5 mph - N/A   Clear
11:58 PM 43.5 °F 40.9 °F 33.4 °F 68% 30.11 in 10.0 mi WNW 4.6 mph - N/A   Clear